Погода в Тампе

США     27˚56′50″N   82˚27′31″W
темп.,
°C
ветер,
м/с
пор.,
м/с
влажн.,
%
обл.,
%
осадки,
мм/ч
давл.,
гПа
погр.,
м
5 декабря, сб
сб501:00+21˚юз368892 0.1 1018211
04:00+20˚з359230 0.1 1018181
07:00+18˚ссз589126 0.1 1018360
10:00+18˚с465127 0.0 1020352
13:00+21˚с343913 0.0 1018498
16:00+22˚ссз44382 0.0 1017543
19:00+18˚с46447 0.0 1018211
22:00+16˚ссв46420 0.0 1019202
6 декабря, вс
вс601:00+15˚с45460 0.0 1018182
04:00+14˚св345010 0.0 1017166
07:00+13˚св34525 0.0 1018141
10:00+17˚в344952 0.0 1018278
13:00+22˚ю125444 0.0 1016489
16:00+22˚з226099 0.0 1014508
19:00+19˚ссз355899 0.0 1015181
22:00+18˚с3556100 0.1 1015330
7 декабря, пн
пн701:00+15˚св4575100 1.6 1012169
04:00+16˚в3492100 5.0 1010190
07:00+18˚юз1191100 5.0 1010132
10:00+20˚юз368293 0.0 1011507
13:00+22˚з697793 1.4 1009651
16:00+18˚ссз687347 0.0 1008683
19:00+17˚сз9117150 0.1 10121132
22:00+16˚сз7106733 0.0 10141134
8 декабря, вт
вт801:00+14˚ссз7106122 0.0 10151327
04:00+11˚с796272 0.0 10161013
07:00+9˚с475840 0.0 1018560
10:00+12˚с46550 0.0 1020902
13:00+14˚сз56470 0.0 1019981
16:00+14˚сз565225 0.0 1018858
19:00+12˚ссз365862 0.0 1019596
22:00+12˚ссз355846 0.0 1020467
9 декабря, ср
ср901:00+11˚с346042 0.0 1021360
04:00+10˚ссв465514 0.0 1020219
07:00+9˚св345632 0.0 1022172
10:00+12˚ссв46550 0.0 1024523
13:00+15˚сз56520 0.0 10221124
16:00+15˚ссз56520 0.0 10211040
19:00+13˚ссз46600 0.0 1023576
22:00+12˚ссв34620 0.0 1024299